Orbital Elements at Epoch 2459200.5 (2020-Dec-17.0) TDB
Reference: JPL 19 (heliocentric ecliptic J2000)
Element | Value | Uncertainty (1-sigma) | Units |
e | .13964697449968 | 3.5566e-08 | |
a | 2.402708065277593 | 1.1486e-08 | au |
q | 2.067177153355598 | 8.6712e-08 | au |
i | 3.431258573924005 | 4.8116e-06 | deg |
node | 63.07724431156686 | 5.722e-05 | deg |
peri | 36.69580873007447 | 5.9751e-05 | deg |
M | 188.7748636960651 | 1.8683e-05 | deg |
tp | 2459847.515904020785 (2022-Sep-25.01590402) | 7.3247e-05 | TDB |
period | 1360.347729751697 3.72 | 9.7545e-06 2.671e-08 | d yr |
n | .2646382186896512 | 1.8976e-09 | deg/d |
Q | 2.738238977199589 | 1.309e-08 | au |
|
| | Orbit Determination Parameters
Additional Information
|